Regional Weather Roundup
Issued by NWS

Home | Current Version | Previous Version | Graphics & Text | Print | Product List | Glossary Off
Versions: 1 2 3 4 5 6 7 8 9 10 11 12 13 14 15 16 17 18 19 20 21 22 23 24 25 26 27 28 29 30 31 32 33 34 35 36 37 38 39 40 41 42 43 44 45 46 47 48 49 50

000
ASUS43 KMKX 291800
RWRWI

WISCONSIN REGIONAL WEATHER ROUNDUP
NATIONAL WEATHER SERVICE MILWAUKEE/SULLIVAN WI
100 PM CDT FRI JUL 29 2016

NOTE: "FAIR" INDICATES FEW OR NO CLOUDS BELOW 12,000 FEET WITH NO
SIGNIFICANT WEATHER AND/OR OBSTRUCTIONS TO VISIBILITY.

WIZ001-002-006>008-014>016-023>028-291900-
NORTHWEST WISCONSIN

CITY           SKY/WX    TMP DP  RH WIND       PRES   REMARKS
SUPERIOR ARPT  SUNNY     71  54  56 NE7       30.10F
ASHLAND        SUNNY     72  55  55 NE13      30.10F
6HR MIN TEMP:  51; 6HR MAX TEMP:  72;

HAYWARD        PTSUNNY   71  53  52 E6        30.10S
6HR MIN TEMP:  50; 6HR MAX TEMP:  73;

SIREN          NOT AVBL
CUMBERLAND     SUNNY     70  48  46 NE5       30.10S
RICE LAKE      SUNNY     72  52  48 N5        30.09F
CHETEK         SUNNY     72  53  51 NE5       30.08S
LADYSMITH      SUNNY     73  54  50 NE7       30.09F
EAU CLAIRE     SUNNY     75  54  47 CALM      30.05S
6HR MIN TEMP:  61; 6HR MAX TEMP:  75;

MENOMONIE      SUNNY     77  48  36 N6        30.07S
6HR MIN TEMP:  61; 6HR MAX TEMP:  77;

NEW RICHMOND   SUNNY     72  48  42 NE8       30.09S
OSCEOLA        SUNNY     72  51  46 NE3       30.11F
$$

WIZ003>005-009-010-017-018-291900-
NORTH CENTRAL WISCONSIN

CITY           SKY/WX    TMP DP  RH WIND       PRES   REMARKS
MANITOWISH WTR SUNNY     72  53  52 E6        30.10S
ARBOR VITAE    MOSUNNY   72  57  59 E3        30.10S
WOODRUFF       MOSUNNY   72  57  59 E3        30.10S
RHINELANDER    MOSUNNY   73  55  53 VRB6      30.10R
6HR MIN TEMP:  53; 6HR MAX TEMP:  74;

EAGLE RIVER    MOSUNNY   72  53  50 E6        30.09F
LAND O LAKES   SUNNY     73  49  41 E6        30.11R
PHILLIPS       PTSUNNY   71  55  56 NE5       30.08F
6HR MIN TEMP:  52; 6HR MAX TEMP:  73;

TOMAHAWK       SUNNY     72  56  57 CALM      30.09S
6HR MIN TEMP:  51; 6HR MAX TEMP:  72;

MEDFORD        PTSUNNY   71  58  64 E7        30.07F
MERRILL        CLOUDY    74  60  61 E6        30.07S
6HR MIN TEMP:  54; 6HR MAX TEMP:  74;

$$

WIZ029-030-035-036-043>047-291900-
CENTRAL WISCONSIN

CITY           SKY/WX    TMP DP  RH WIND       PRES   REMARKS
WAUSAU         CLOUDY    73  59  61 E10       30.05S
6HR MIN TEMP:  59; 6HR MAX TEMP:  76;

MOSINEE        PTSUNNY   72  63  73 E10G16    30.07S
MARSHFIELD     PTSUNNY   76  61  59 E9        30.05S
6HR MIN TEMP:  61; 6HR MAX TEMP:  76;

STEVENS POINT  CLOUDY    69  61  76 E10       30.06S
WAUPACA        CLOUDY    72  64  76 NE5       30.05S
WAUTOMA        CLOUDY    67  63  87 NE8       30.04F
6HR MIN TEMP:  60; 6HR MAX TEMP:  67;

WISC RAPIDS    CLOUDY    71  60  68 E10       30.06S
6HR MIN TEMP:  60; 6HR MAX TEMP:  72;

CAMP DOUGLAS   NOT AVBL
$$

WIZ011>013-019>022-031-037>040-048>050-291900-
NORTHEAST WISCONSIN

CITY           SKY/WX    TMP DP  RH WIND       PRES   REMARKS
ANTIGO         CLOUDY    71  59  66 E8        30.08S
SHAWANO        CLOUDY    74  63  68 NE7       30.06F
OCONTO         CLOUDY    73  65  76 E8        30.05S
STURGEON BAY   MOSUNNY   76  60  57 NE9       30.06S
6HR MIN TEMP:  65; 6HR MAX TEMP:  76;

GREEN BAY      CLOUDY    72  63  73 E8        30.04F
6HR MIN TEMP:  61; 6HR MAX TEMP:  72;

MANITOWOC      NOT AVBL
APPLETON       CLOUDY    70  61  73 NE9       30.03S
CLINTONVILLE   CLOUDY    72  61  68 E9        30.05S
OSHKOSH        LGT RAIN  70  64  81 E8        30.02F
6HR MIN TEMP:  65; 6HR MAX TEMP:  70; 6HR PCP: TRACE;

$$

WIZ032>034-041-042-053>061-291900-
SOUTHWEST WISCONSIN

CITY           SKY/WX    TMP DP  RH WIND       PRES   REMARKS
LA CROSSE      CLOUDY    75  63  66 VRB3      30.02S
6HR MIN TEMP:  65; 6HR MAX TEMP:  75;

SPARTA         CLOUDY    71  64  76 SE5       30.04S
VIROQUA        CLOUDY    68  64  86 NE6       30.04S
6HR MIN TEMP:  61; 6HR MAX TEMP:  69;

BOSCOBEL       CLOUDY    69  63  81 E3        30.01S
6HR MIN TEMP:  66; 6HR MAX TEMP:  69;

PRAIRIE DU CHI CLOUDY    65  62  88 N6        30.01S
PLATTEVILLE    CLOUDY    70  68  92 N7        29.99S
6HR MIN TEMP:  66; 6HR MAX TEMP:  70;

$$

WIZ056-057-062-063-064-067-068-291900-
SOUTH CENTRAL WISCONSIN

CITY           SKY/WX    TMP DP  RH WIND       PRES   REMARKS
REEDSBURG      CLOUDY    67  65  92 NE8       30.02S
6HR MIN TEMP:  60; 6HR MAX TEMP:  67; 6HR PCP:  0.02;

BARABOO/DELLS  CLOUDY    67  63  87 NE6       30.02S
LONE ROCK      HVY RAIN  65  63  93 NE6       30.02S FOG
MINERAL POINT  CLOUDY    70  66  88 NE6       30.00F
MADISON        CLOUDY    71  66  84 NE10      29.99S
6HR MIN TEMP:  64; 6HR MAX TEMP:  71; 6HR PCP:  0.06;

MIDDLETON      CLOUDY    71  67  89 NE6       30.00F
WATERTOWN      CLOUDY    70  69  95 E9        29.99F
6HR MIN TEMP:  65; 6HR MAX TEMP:  72;

MONROE         CLOUDY    70  66  88 N7        29.97F
JANESVILLE     CLOUDY    75  66  73 NE8       29.95F
$$

WIZ051-052-058>065-066-070>072-291900-
SOUTHEAST WISCONSIN

CITY           SKY/WX    TMP DP  RH WIND       PRES   REMARKS
MILWAUKEE      PTSUNNY   73  65  75 NE10      29.98F
6HR MIN TEMP:  71; 6HR MAX TEMP:  75;

WAUKESHA       CLOUDY    70  63  78 NE13      30.00F
MILWAUKEE/TIMM CLOUDY    66  64  94 NE8       30.01S
RACINE         PTSUNNY   74  65  73 NE10      29.99S
6HR MIN TEMP:  72; 6HR MAX TEMP:  74;

BURLINGTON     CLOUDY    73  65  78 NE7       29.97S
KENOSHA        CLOUDY    74  67  78 NE12      29.97F
6HR MIN TEMP:  73; 6HR MAX TEMP:  75;

FOND DU LAC    CLOUDY    71  65  81 NE9       30.03S
6HR MIN TEMP:  65; 6HR MAX TEMP:  71; 6HR PCP:  0.24;

SHEBOYGAN      CLOUDY    71  63  75 NE12      30.03S
6HR MIN TEMP:  66; 6HR MAX TEMP:  72;

WEST BEND      CLOUDY    70  63  78 E9        30.02S
JUNEAU         HVY RAIN  67  64  92 NE8       30.02S
$$

LSZ147-162-291900-
LAKE SUPERIOR

STATION/POSITION TIME  TEMP    WIND        PRES    WAVE
                       AIR SEA DIR/SP/G            HT/PER
                 (UTC) (F)     (DEG/KT/KT) (MB)    (FT/S)
W MID LAKE BUOY  1650   62 62   30/  6/  8 1019.2F   0
DEVILS ISLAND    1700   64      50/  7/  8 1019.7F
PORT WING        1700   61      10/  7/  8 1019.6
SAXON HARBOR     1640   66      10/  5/  8 1019.3S
$$

LMZ867-665-643>646-291900-
LAKE MICHIGAN

STATION/POSITION TIME  TEMP    WIND        PRES    WAVE
                       AIR SEA DIR/SP/G            HT/PER
                 (UTC) (F)     (DEG/KT/KT) (MB)    (FT/S)
CHAMBERS ISLAND  1700   71      30/ 11/ 13 1017.6S
S GREEN BAY BUOY 1730   70 71   40/  8/  8 1017.2
N MID LAKE BUOY  1650   68 69   70/ 12/ 14 1017.4S   2/ 4
NORTHPORT PIER   1700   70      80/  9/ 12 1017.9S
SISTER BAY       1706   75     110/ 11/ 14   N/A
ALGOMA LAKESHORE 1743           70/ 13/ 14   N/A
KEWAUNEE LAKESHO 1700   67      20/  4/  8 1017.2R
SHEBOYGAN LAKESH 1700   63     350/ 11/ 12 1017.1R
PORT WASHINGTON  1740   70      30/  8/  9 1016.9S
ATWATER BUOY     1700   64 63  360/  8/ 10 1017.3F
MILWAUKEE LAKESH 1710   67      30/  8/  9   N/A
S MID LAKE BUOY  1650   71 74   90/ 16/ 17 1014.0R   3/ 4
KENOSHA   LAKESH 1700   72      70/  8/  8 1014.6S
$$

TC  - TEMPERATURE IN CELSIUS
VSB - VISIBILITY IN STATUTE MILES
WCI - WIND CHILL INDEX
HX  - HEAT INDEX





USA.gov is the U.S. government's official web portal to all federal, state and local government web resources and services.